sat.trackr.live / text

‹ back to catalog

CS1

NORAD 49261 · 2021-088B

PAYLOAD ACTIVE UNKNOWN

§ Identity

Operator
Country
US
Launch date
2021-09-27
Launch site
AFWTR
Launch vehicle
Mass (kg)
RCS (m²)

External: N2YO · Heavens-Above · Gunter

§ Orbital elements

Epoch: 2026-09-20T10:58:14.388672Z

Period
93.68 min
Inclination
97.3662°
Eccentricity
0.0012814
Mean motion
15.37078864 rev/d
Perigee alt
446.0 km
Apogee alt
463.5 km
Semi-major
6,832.9 km
B*
2.9842e-4
RAAN
326.8525°
Arg perigee
98.4051°
Mean anomaly
261.8647°
Rev number
27,504

§ Raw data

CS11 49261U 21088B   26263.45711098  .00010778  00000+0  29842-3 0  99952 49261  97.3662 326.8525 0012814  98.4051 261.8647 15.37078864275042

JSON: /api/v1/satellites/49261 · /tle

For live sub-satellite position, see the globe view (requires WebGL).

§ Visibility from observer

Set your observer location to see the next 7 days of passes ≥ 10°. The values pass through the URL so the page stays shareable.

No JS? Fill the form by hand. The geolocation button needs JavaScript.